DELTA 1 DEB, 10716

Orbit data source: Space-Track

DELTA 1 DEB, 10716 is space debris in SSO originally from a launch on Thu, 29 Jul 1976 UTC launched from the Air Force Western Test Range (AFWTR). Debris objects in space refer to the collection of defunct objects orbiting the Earth. Examples of debris include non-operational satellites, rocket bodies, and fragments generated from explosions, collisions, or faulty payload assembly.

Loading next visibility...
Identifier
10716, 1976-077AM
Orbit
SSO
Last TLE update
1 day ago
Origin
Manufacturer
Unknown
Mission
Spacecraft
Bus & Motor
Unknown
Mass
Unknown
Launch date (UTC)
1976-07-29 (49 years ago)
Launch vehicle
Unknown
Launch site
Air Force Western Test Range (AFWTR)
Object type
Payload
Rocket body
Debris
Shape & HBR
Unknown
Radar Cross Section
Small (<0.1 m²)

Expand to show TLE details & history

TLE from 1 day ago
0 DELTA 1 DEB
1 10716U 76077AM  25127.98678769  .00001927  00000-0  82400-2 0  9994
2 10716 102.7536 273.6994 0152735 168.3229 312.7676 12.80420479224899
Epoch: 2025-05-07T23:40Z
Definitive object data (Epoch: 2025-05-07T23:40:58.456Z)
Latitude
57.92424°
Longitude
-106.54806°
Altitude
1,270.237 km
Speed
7.263 km/s
True Right ascension
07h 39m 02s
True Declination
57° 46' 47"
Sunlit
Object was in daylight at TLE epoch
Visualization TLE readout
Latitude
75.68758°
Longitude
-8.00678°
Altitude
1,334.944 km
Speed
7.205 km/s
Apparent Right ascension
06h 49m 43s
Apparent Declination
41° 03' 52"
Sunlit
Object is in daylight
Visualization observer readout
Local Sidereal Time
17:24:11
Azimuth
343.929° N
Elevation
-6.716°
Doppler factor
1
Orbital elements
Apogee altitude
1,455.191 km
Perigee altitude
1,219.506 km
Semi-major axis
7,715.485 km
Eccentricity
0.0152735
Inclination
102.7536°
RAAN
273.6994°
Arg. of periapsis
168.3229°
True anomaly
311.46599°
Mean anomaly
312.7676°
Eccentric anomaly
312.11848°
Mean motion
3.20257 °/min
BSTAR
0.00824
Orbital period
112.41 mins
Loading maneuver chart data...
Loading SW <> Apogee altitude chart data...
Loading historical data...
Loading historical data...
Loading historical data...
Loading historical data...
Loading historical data...
Loading historical data...
Loading historical data...

DELTA 1 DEB Visibility forecast

Observer location: undefined°, undefined°

Span
Click to sort rows by Start time (UTC) header in descending order
Start Az.
Max El. time (UTC)
Max El. Az.
Max El.
End time (UTC)
End Az.
12 mins2025-05-09 10:46:53.250Z210.768° SW2025-05-09 10:52:53.250Z262.701° W24.709°2025-05-09 10:58:53.250Z315.255° NNW
14 mins2025-05-09 22:32:53.250Z23.01° NE2025-05-09 22:39:53.250Z112.536° SE43.599°2025-05-09 22:46:53.250Z191.65° SSW
8 mins2025-05-10 00:25:53.250Z342.566° N2025-05-10 00:29:53.250Z300.863° NW21.706°2025-05-10 00:33:53.250Z262.9° W
9 mins2025-05-10 07:30:53.250Z86.426° E2025-05-10 07:34:53.250Z53.056° ENE18.881°2025-05-10 07:39:53.250Z11.343° NNE
|